Weather History for Tahlequah, OK

Change the Weather History Date:

Wednesday, December 26, 2012

  Actual Average (KMKO) Record (KMKO)
Temperature  
Mean Temperature 24 °F -  
Max Temperature 32 °F 47 °F 75 °F (2008)
Min Temperature 15 °F 27 °F 15 °F (2012)
Degree Days  
Heating Degree Days 42    
Moisture  
Dew Point 17 °F    
Average Humidity 74    
Maximum Humidity 86    
Minimum Humidity 60    
Precipitation  
Precipitation 0.00 in - - ()
Sea Level Pressure  
Sea Level Pressure 30.16 in    
Wind  
Wind Speed 9 mph (NNW)    
Max Wind Speed 18 mph    
Max Gust Speed 26 mph    
Visibility 10 miles    
Events      
Averages and records for this station are not official NWS values.
T = Trace of Precipitation, MM = Missing Value Source: NWS Daily Summary

Daily Weather History Graph

Daily Weather History Graph

Search for Another Location

Airport:

Trip Planner

Search our weather history database for the weather conditions in past years. The results will help you decide how hot, cold, wet, or windy it might be!

Date:

Astronomy

Dec. 26, 2012 Rise Set
Actual Time 7:28 AM CST 5:12 PM CST
Civil Twilight 7:00 AM CST 5:41 PM CST
Nautical Twilight 6:28 AM CST 6:13 PM CST
Astronomical Twilight 5:57 AM CST 6:44 PM CST
Moon 4:06 PM CST (12/26) 5:54 AM CST (12/26)
Length of Visible Light 10h 41m
Length of Day
9h 43m
Waxing Gibbous, 97% of the Moon is Illuminated
Dec 26
Waxing Gibbous
Dec 28
Full
Jan 4
Last Quarter
Jan 11
New
Jan 18
First Quarter

Hourly Weather History & Observations

Time (CST) Temp. Windchill Dew Point Humidity Pressure Visibility Wind Dir Wind Speed Gust Speed Precip Events Conditions
12:15 AM 26.6 °F 13.4 °F 19.4 °F 74% 30.08 in 10.0 mi North 18.4 mph 24.2 mph N/A   Mostly Cloudy
12:35 AM 26.6 °F 16.2 °F 19.4 °F 74% 30.09 in 10.0 mi North 11.5 mph - N/A   Mostly Cloudy
12:55 AM 26.6 °F 15.7 °F 19.4 °F 74% 30.09 in 10.0 mi NNW 12.7 mph - N/A   Mostly Cloudy
1:15 AM 23.0 °F 10.1 °F 17.6 °F 80% 30.10 in 10.0 mi NNW 15.0 mph 20.7 mph N/A   Mostly Cloudy
1:35 AM 23.0 °F 9.6 °F 15.8 °F 74% 30.11 in 10.0 mi NNW 16.1 mph 24.2 mph N/A   Mostly Cloudy
1:55 AM 23.0 °F 11.1 °F 15.8 °F 74% 30.11 in 10.0 mi NNW 12.7 mph 20.7 mph N/A   Mostly Cloudy
2:15 AM 23.0 °F 10.1 °F 14.0 °F 68% 30.12 in 10.0 mi NNW 15.0 mph 20.7 mph N/A   Overcast
2:35 AM 23.0 °F 10.1 °F 14.0 °F 68% 30.13 in 10.0 mi NNW 15.0 mph 26.5 mph N/A   Overcast
2:55 AM 21.2 °F 6.8 °F 14.0 °F 74% 30.13 in 10.0 mi NNW 17.3 mph 24.2 mph N/A   Overcast
3:15 AM 21.2 °F 7.3 °F 12.2 °F 68% 30.13 in 10.0 mi North 16.1 mph 21.9 mph N/A   Mostly Cloudy
3:35 AM 21.2 °F 10.1 °F 12.2 °F 68% 30.14 in 10.0 mi North 10.4 mph 17.3 mph N/A   Mostly Cloudy
3:55 AM 19.4 °F 7.2 °F 12.2 °F 74% 30.14 in 10.0 mi North 11.5 mph 18.4 mph N/A   Scattered Clouds
4:15 AM 19.4 °F 10.4 °F 12.2 °F 74% 30.14 in 10.0 mi NNW 6.9 mph - N/A   Clear
4:55 AM 17.6 °F 6.4 °F 12.2 °F 79% 30.14 in 10.0 mi NW 9.2 mph - N/A   Scattered Clouds
5:15 AM 17.6 °F 4.3 °F 12.2 °F 79% 30.14 in 10.0 mi NNW 12.7 mph 19.6 mph N/A   Mostly Cloudy
5:55 AM 17.6 °F 10.7 °F 12.2 °F 79% 30.14 in 10.0 mi NNW 4.6 mph - N/A   Clear
6:15 AM 15.8 °F 8.6 °F 12.2 °F 86% 30.14 in 10.0 mi North 4.6 mph - N/A   Clear
6:35 AM 15.8 °F 8.6 °F 12.2 °F 86% 30.15 in 10.0 mi NNW 4.6 mph - N/A   Clear
6:55 AM 15.8 °F 10.2 °F 12.2 °F 86% 30.16 in 10.0 mi NNW 3.5 mph - N/A   Clear
7:15 AM 15.8 °F 8.6 °F 12.2 °F 86% 30.17 in 10.0 mi North 4.6 mph - N/A   Scattered Clouds
7:35 AM 17.6 °F 12.3 °F 12.2 °F 79% 30.18 in 10.0 mi WNW 3.5 mph - N/A   Mostly Cloudy
7:55 AM 17.6 °F 9.3 °F 12.2 °F 79% 30.19 in 10.0 mi NW 5.8 mph - N/A   Mostly Cloudy
8:15 AM 17.6 °F 9.3 °F 12.2 °F 79% 30.19 in 10.0 mi NNW 5.8 mph - N/A   Mostly Cloudy
8:35 AM 17.6 °F - 12.2 °F 79% 30.18 in 10.0 mi Calm Calm - N/A   Mostly Cloudy
8:55 AM 19.4 °F 10.4 °F 14.0 °F 80% 30.21 in 10.0 mi NW 6.9 mph - N/A   Mostly Cloudy
9:15 AM 19.4 °F 8.6 °F 14.0 °F 80% 30.21 in 10.0 mi NW 9.2 mph - N/A   Mostly Cloudy
9:35 AM 19.4 °F 9.5 °F 14.0 °F 80% 30.22 in 10.0 mi NW 8.1 mph - N/A   Mostly Cloudy
9:55 AM 21.2 °F 12.6 °F 14.0 °F 74% 30.22 in 10.0 mi NNW 6.9 mph - N/A   Overcast
10:15 AM 21.2 °F 11.7 °F 14.0 °F 74% 30.23 in 10.0 mi NW 8.1 mph - N/A   Overcast
10:35 AM 23.0 °F 13.9 °F 14.0 °F 68% 30.24 in 10.0 mi NW 8.1 mph - N/A   Mostly Cloudy
10:55 AM 23.0 °F 13.9 °F 14.0 °F 68% 30.24 in 10.0 mi NNW 8.1 mph - N/A   Mostly Cloudy
11:15 AM 24.8 °F 16.9 °F 15.8 °F 69% 30.23 in 10.0 mi NNW 6.9 mph - N/A   Mostly Cloudy
11:35 AM 28.4 °F 21.2 °F 17.6 °F 64% 30.23 in 10.0 mi NW 6.9 mph - N/A   Mostly Cloudy
11:55 AM 28.4 °F 20.4 °F 17.6 °F 64% 30.23 in 10.0 mi NW 8.1 mph - N/A   Mostly Cloudy
12:15 PM 28.4 °F 21.2 °F 17.6 °F 64% 30.22 in 10.0 mi WNW 6.9 mph - N/A   Mostly Cloudy
12:35 PM 26.6 °F 18.2 °F 17.6 °F 69% 30.20 in 10.0 mi NW 8.1 mph - N/A   Scattered Clouds
12:55 PM 28.4 °F 22.2 °F 17.6 °F 64% 30.20 in 10.0 mi NNW 5.8 mph - N/A   Clear
1:15 PM 28.4 °F 20.4 °F 17.6 °F 64% 30.18 in 10.0 mi NNW 8.1 mph - N/A   Clear
1:35 PM 30.2 °F 24.3 °F 17.6 °F 60% 30.17 in 10.0 mi NNW 5.8 mph - N/A   Clear
1:55 PM 30.2 °F 21.9 °F 19.4 °F 64% 30.16 in 10.0 mi NNW 9.2 mph - N/A   Clear
2:15 PM 32.0 °F 24.8 °F 19.4 °F 60% 30.17 in 10.0 mi North 8.1 mph - N/A   Clear
2:55 PM 32.0 °F 24.8 °F 19.4 °F 60% 30.15 in 10.0 mi North 8.1 mph - N/A   Clear
3:15 PM 32.0 °F 23.6 °F 19.4 °F 60% 30.16 in 10.0 mi NNW 10.4 mph - N/A   Clear
3:35 PM 32.0 °F 25.6 °F 19.4 °F 60% 30.16 in 10.0 mi NNW 6.9 mph - N/A   Clear
3:55 PM 32.0 °F 26.4 °F 19.4 °F 60% 30.17 in 10.0 mi NW 5.8 mph - N/A   Clear
4:15 PM 32.0 °F 26.4 °F 19.4 °F 60% 30.17 in 10.0 mi NNW 5.8 mph - N/A   Clear
4:35 PM 30.2 °F 26.7 °F 19.4 °F 64% 30.18 in 10.0 mi NNW 3.5 mph - N/A   Clear
4:55 PM 30.2 °F 24.3 °F 19.4 °F 64% 30.19 in 10.0 mi NW 5.8 mph - N/A   Clear
5:15 PM 28.4 °F 22.2 °F 19.4 °F 69% 30.18 in 10.0 mi NW 5.8 mph - N/A   Clear
5:35 PM 28.4 °F - 19.4 °F 69% 30.17 in 10.0 mi Calm Calm - N/A   Clear
5:55 PM 26.6 °F - 19.4 °F 74% 30.18 in 10.0 mi Calm Calm - N/A   Clear
6:15 PM 26.6 °F - 19.4 °F 74% 30.16 in 10.0 mi Calm Calm - N/A   Clear
6:35 PM 26.6 °F - 19.4 °F 74% 30.16 in 10.0 mi Calm Calm - N/A   Clear
6:55 PM 26.6 °F - 19.4 °F 74% 30.17 in 10.0 mi Calm Calm - N/A   Clear
7:15 PM 26.6 °F - 19.4 °F 74% 30.17 in 10.0 mi Calm Calm - N/A   Clear
7:35 PM 26.6 °F - 21.2 °F 80% 30.17 in 10.0 mi Calm Calm - N/A   Clear
7:55 PM 26.6 °F - 21.2 °F 80% 30.17 in 10.0 mi Calm Calm - N/A   Clear
8:15 PM 24.8 °F - 21.2 °F 86% 30.18 in 10.0 mi Calm Calm - N/A   Clear
8:35 PM 26.6 °F - 19.4 °F 74% 30.16 in 10.0 mi Calm Calm - N/A   Clear
8:55 PM 23.0 °F - 19.4 °F 86% 30.16 in 10.0 mi Calm Calm - N/A   Clear
9:15 PM 23.0 °F - 19.4 °F 86% 30.16 in 10.0 mi Calm Calm - N/A   Clear
9:35 PM 23.0 °F - 19.4 °F 86% 30.15 in 10.0 mi Calm Calm - N/A   Clear
9:55 PM 23.0 °F - 19.4 °F 86% 30.15 in 10.0 mi Calm Calm - N/A   Clear
10:15 PM 23.0 °F 17.0 °F 19.4 °F 86% 30.14 in 10.0 mi East 4.6 mph - N/A   Clear
10:35 PM 24.8 °F - 19.4 °F 80% 30.15 in 10.0 mi Calm Calm - N/A   Clear
10:55 PM 24.8 °F 20.5 °F 19.4 °F 80% 30.14 in 10.0 mi East 3.5 mph - N/A   Clear
11:15 PM 24.8 °F - 19.4 °F 80% 30.13 in 10.0 mi Calm Calm - N/A   Clear
11:35 PM 24.8 °F 17.9 °F 19.4 °F 80% 30.13 in 10.0 mi East 5.8 mph - N/A   Clear
11:55 PM 24.8 °F 20.5 °F 19.4 °F 80% 30.12 in 10.0 mi East 3.5 mph - N/A   Clear